Regional Weather Roundup
Issued by NWS

Home | Current Version | Previous Version | Text Only | Print | Product List | Glossary On
Versions: 1 2 3 4 5 6 7 8 9 10 11 12 13 14 15 16 17 18 19 20 21 22 23 24 25 26 27 28 29 30 31 32 33 34 35 36 37 38 39 40 41 42 43 44 45 46 47 48 49 50
000
ASUS43 KDMX 231207
RWRIA

WEATHER ROUNDUP FOR IOWA
NATIONAL WEATHER SERVICE DES MOINES IA
600 AM CST SUN NOV 23 2014

NOTE: "FAIR" INDICATES FEW OR NO CLOUDS BELOW 12,000 FEET WITH NO
SIGNIFICANT WEATHER AND/OR OBSTRUCTIONS TO VISIBILITY.

* - THESE STATIONS ARE NOT NWS STATIONS...THUS NOT UNDER NWS
QUALITY CONTROL.  THEY ALSO DO NOT REPORT WEATHER SUCH
AS PRECIPITATION OR FOG.

IAZ001>003-012>014-020>022-031>034-043>046-231300-
   NORTHWEST IOWA

CITY           SKY/WX    TMP DP  RH WIND       PRES   REMARKS
CARROLL *      CLOUDY    50  50 100 S14       29.47S
CHEROKEE *     CLOUDY    51  51 100 S9        29.44S FOG
DENISON *      MOCLDY    52  52 100 S13G22    29.44F
LE MARS *        N/A     50  50 100 S9        29.44R FOG
ORANGE CITY *  FOG       52  48  87 SW8       29.43R VSB 3/4
SHELDON *      CLOUDY    50  50 100 S10       29.42R FOG
SIOUX CITY     CLOUDY    50  48  93 CALM      29.45R FOG
6HR MIN TEMP:  50; 6HR MAX TEMP:  55;

SPENCER        CLOUDY    50  48  93 SW7       29.44R FOG
6HR MIN TEMP:  46; 6HR MAX TEMP:  51;

STORM LAKE *   CLOUDY    50  50 100 SW15      29.45S FOG
$$

IAZ055>058-069>071-079>083-090>094-231300-
   SOUTHWEST IOWA

CITY           SKY/WX    TMP DP  RH WIND       PRES   REMARKS
ATLANTIC *     CLOUDY    52  52 100 S12G17    29.50F
AUDUBON *      DRIZZLE   52  46  82 S13       29.49F
CLARINDA *     CLOUDY    52  52 100 S3        29.55R FOG
COUNCIL BLFS * CLOUDY    54  54 100 S12       29.46F
CRESTON *      FOG       52  52 100 S9        29.54S VSB 1
HARLAN  *      CLOUDY    52  52 100 S12       29.51F
LAMONI         CLOUDY    50  50 100 S8        29.55F FOG
6HR MIN TEMP:  50; 6HR MAX TEMP:  53;

RED OAK *      CLOUDY    52  52 100 S8        29.52S FOG
SHENANDOAH *   CLOUDY    54  54 100 SE12      29.52S FOG
$$

IAZ047>049-059>061-072>074-084-231300-
   CENTRAL IOWA

CITY           SKY/WX    TMP DP  RH WIND       PRES   REMARKS
AMES           CLOUDY    51  49  92 S7        29.53F FOG
6HR MIN TEMP:  51; 6HR MAX TEMP:  53;

ANKENY *       CLOUDY    52  52 100 S7        29.54F FOG
CHARITON *     CLOUDY    52  50  93 S13       29.56F FOG
DES MOINES     DRIZZLE   53  50  89 S9        29.55S
6HR MIN TEMP:  53; 6HR MAX TEMP:  55; 6HR PCP: TRACE;

GRINNELL*      CLOUDY    52  50  93 S12       29.58S
KNOXVILLE *    CLOUDY    52  50  93 S13       29.55S
MARSHALLTOWN   CLOUDY    51  50  96 S12       29.54F FOG
6HR MIN TEMP:  51; 6HR MAX TEMP:  53;

PELLA *        CLOUDY    52  50  92 S10       29.58S
PERRY *        CLOUDY    52  52 100 S10       29.52S FOG
$$

IAZ004>006-015-016-023>025-035-036-231300-
   NORTH CENTRAL IOWA

CITY           SKY/WX    TMP DP  RH WIND       PRES   REMARKS
ALGONA *       CLOUDY    50  50 100 S15       29.47S FOG
CLARION *      CLOUDY    50  50 100 S13       29.49F
ESTHERVILLE    CLOUDY    49  48  97 S10       29.44R FOG
6HR MIN TEMP:  47; 6HR MAX TEMP:  51;

FORT DODGE *   CLOUDY    52  48  87 S15       29.49F
MASON CITY     CLOUDY    49  49 100 S13       29.50F FOG
6HR MIN TEMP:  49; 6HR MAX TEMP:  51; 6HR PCP: TRACE;

FOREST CITY *  CLOUDY    50  50 100 S12       29.48S FOG
IOWA FALLS *   CLOUDY    50  48  93 S16       29.52F FOG
$$

IAZ007>011-017>019-026>030-037>042-050>054-066-231300-
   NORTHEAST IOWA

CITY           SKY/WX    TMP DP  RH WIND       PRES   REMARKS
CEDAR RAPIDS   CLOUDY    50  50 100 S9        29.60F FOG
6HR MIN TEMP:  49; 6HR MAX TEMP:  51; 6HR PCP: TRACE;

CHARLES CITY * CLOUDY    50  50 100 S15G23    29.52F FOG
CLINTON *      CLOUDY    50  46  87 S8        29.69S
DECORAH *      CLOUDY    50  50 100 S10G22    29.54F FOG
DUBUQUE        CLOUDY    49  49 100 S14       29.63S FOG
6HR MIN TEMP:  47; 6HR MAX TEMP:  49;

MONTICELLO *   CLOUDY    50  50 100 S10       29.62F FOG
OELWEIN *      CLOUDY    50  50 100 S17       29.57F FOG
WATERLOO       CLOUDY    50  50 100 S13       29.55F FOG
6HR MIN TEMP:  50; 6HR MAX TEMP:  52;

$$

IAZ064-065-067-068-078-231300-
   EAST CENTRAL IOWA

CITY           SKY/WX    TMP DP  RH WIND       PRES   REMARKS
DAVENPORT      CLOUDY    51  47  86 S15       29.66F
6HR MIN TEMP:  50; 6HR MAX TEMP:  52;

IOWA CITY      CLOUDY    50  50 100 SE6       29.64F
6HR MIN TEMP:  50; 6HR MAX TEMP:  52;

MT. PLEASANT * CLOUDY    50  48  91 S9        29.64F
MUSCATINE *    CLOUDY    52  48  87 SE8       29.65F
QUAD CITIES    CLOUDY    51  47  86 S10       29.66F
6HR MIN TEMP:  51; 6HR MAX TEMP:  53;

$$

IAZ062-063-075>077-085>089-095>099-231300-
   SOUTHEAST IOWA

CITY           SKY/WX    TMP DP  RH WIND       PRES   REMARKS
BURLINGTON     CLOUDY    50  48  93 S8        29.66F
6HR MIN TEMP:  50; 6HR MAX TEMP:  53;

FAIRFIELD *      N/A     52  48  87 S12       29.61F
FORT MADISON * RAIN      52  48  87 SE9       29.66S
KEOKUK *       CLOUDY    52  50  93 SE7       29.64F
OSKALOOSA *    CLOUDY    49  49  97 SE9       29.60S FOG
CENTERVILLE *  CLOUDY    52  52 100 SE8       29.60F
OTTUMWA        CLOUDY    51  49  92 SE8       29.59F
6HR MIN TEMP:  51; 6HR MAX TEMP:  54;

WASHINGTON *   CLOUDY    52  52 100 S9        29.62F
$$

ABBREVIATIONS USED IN REMARKS
   TC - TEMPERATURES IN CELSIUS
  WCI - WIND CHILL INDEX
   HX - HEAT INDEX
  VSB - VISIBILITY
$$



USA.gov is the U.S. government's official web portal to all federal, state and local government web resources and services.